STARLINK-1574, 46062

Orbit data source: Space-Track

STARLINK-1574, 46062 is a payload satellite owned by SpaceX/Seattle (US) in LEO that was launched on Fri, 07 Aug 2020 UTC via an FALCON 9 launch vehicle from the Air Force Eastern Test Range (AFETR). Payloads include a variety of satellites, spacecraft, and rockets equipped with specific instruments for various scientific and technological missions. These include communications satellites like Starlink; space stations such as the ISS; scientific satellites like the Hubble; Earth observation satellites from companies like Planet Labs, Umbra, and HawkEye 360; GPS; miniature CubeSats for education and research; and military/defense satellites.

Loading next visibility...
STARLINK-1574 details
Identifier
46062, 2020-055AM
Orbit
LEO
Last TLE update4 hours ago
Origin
Flag of USSpaceX/Seattle (US)
ManufacturerSpaceX/Seattle
MissionPartially operational Commercial Communications
Bus & MotorSTARLINK, Unknown motor
Mass260 kg wet, ~248 kg dry
Launch date (UTC)
2020-08-07 (4 years ago)
Launch vehicle
FALCON 9
Launch site
Air Force Eastern Test Range (AFETR)
Object type
Payload
Rocket body
Debris
Shape & HBRBox + 1 Pan, 8.86 m
Radar Cross Section13.562 m², Large (>1 m²)

Expand to show TLE details & history

TLE from 4 hours ago
0 STARLINK-1574
1 46062U 20055AM  24361.25001157  .01267719  00000-0  50118-2 0  9997
2 46062  53.0503 273.3898 0000013 350.1646  31.5714 15.83501887242561
Epoch: 2024-12-26T06:00Z
Definitive object data (Epoch: 2024-12-26T06:00:00.999Z)
Latitude17.2421°
Longitude101.57585°
Altitude320.824 km
Speed7.719 km/s
True Right ascension19h 07m 14s
True Declination17° 08' 19"
Sunlit
Object was in daylight at TLE epoch
Visualization TLE readout
Latitude-42.96894°
Longitude-48.51123°
Altitude333.903 km
Speed7.708 km/s
Apparent Right ascension03h 32m 16s
Apparent Declination-88° 29' 10"
Sunlit
Object is in daylight
Visualization observer readout
Local Sidereal Time09:17:30
Azimuth181.967° SSW
Elevation-39.802°
Doppler factor1
Orbital elements
Apogee altitude320.835 km
Perigee altitude320.818 km
Semi-major axis6,698.964 km
Eccentricity0.0000013
Inclination53.0503°
RAAN273.3898°
Arg. of periapsis350.1646°
True anomaly31.57148°
Mean anomaly31.5714°
Eccentric anomaly31.57144°
Mean motion3.95851 °/min
BSTAR0.0050118
Orbital period90.94 mins
Loading maneuver chart data...
Loading historical data...
Loading historical data...
Loading historical data...
Loading historical data...
Loading historical data...
Loading historical data...
Loading historical data...

STARLINK-1574 Visibility forecast

Observer location: undefined°, undefined

Span
Click to sort rows by Start time (UTC) header in descending order
Start Az.
Max El. time (UTC)
Max El. Az.
Max El.
End time (UTC)
End Az.
4 mins2024-12-26 21:14:23.908Z232.635° WSW2024-12-26 21:16:23.908Z267.264° W44.206°2024-12-26 21:18:23.908Z47.481° ENE
4 mins2024-12-27 03:35:23.908Z322.918° NNW2024-12-27 03:37:23.908Z44.633° NE37.811°2024-12-27 03:39:23.908Z112.477° ESE
|